Home   Weather   Kowloon   Past weeks

Flag for Hong Kong Past Weather in Kowloon, Hong Kong — Yesterday and Last 2 Weeks

86 °F

Passing clouds.

Feels Like: 93 °F
Forecast: 79 / 86 °F
Wind: 10 mph from Southeast

Location: National Airport

Current Time: Oct 26, 2016 at 10:22:07 AM

Latest Report: Oct 26, 2016 at 10:00 AM

Visibility: N/A

Pressure: 30.04 "Hg

Humidity: 66%

Dew Point: 73 °F

Location of KowloonLocation

Past Weather in Kowloon — Graph


Kowloon Temperature Yesterday

Maximum temperature yesterday: 90 °F (at 1:00 PM)
Minimum temperature yesterday: 81 °F (at 4:00 AM)
Average temperature yesterday: 84 °F

High & Low Weather Summary for the Past Weeks

High90 °F (Oct 16, 3:30 PM)94% (Oct 12, 6:00 AM)30.04 "Hg (Oct 12, 6:00 AM)
Low72 °F (Oct 12, 6:00 AM)49% (Oct 14, 12:00 PM)29.30 "Hg (Oct 21, 11:30 AM)
Average81 °F76%29.81 "Hg
* Reported Oct 11 9:00 AM — Oct 26 9:00 AM, Kowloon, Weather by CustomWeather, © 2016

Note: Actual official high and low records may vary slightly from our data, if they occured in-between our weather recording intervals... More about our weather records


Kowloon Weather History for the Previous 24 Hours

Scroll right to see more
Time TempWeatherWind HumidityBarometerVisibility
9:00 AM
Wed, Oct 26
84 °FPassing clouds.12 mph70%30.04 "HgN/A
8:30 AM82 °FPassing clouds.7 mph74%30.04 "HgN/A
8:00 AM81 °FPassing clouds.7 mph84%30.01 "HgN/A
7:30 AM81 °FPassing clouds.5 mph84%30.01 "HgN/A
7:00 AM81 °FPassing clouds.6 mph84%30.01 "HgN/A
6:30 AM81 °FPassing clouds.6 mph84%29.98 "HgN/A
6:00 AM81 °FPassing clouds.3 mph84%29.98 "HgN/A
5:30 AM81 °FPassing clouds.6 mph84%29.95 "HgN/A
5:00 AM81 °FPassing clouds.6 mph84%29.95 "HgN/A
4:30 AM81 °FPassing clouds.5 mph79%29.95 "HgN/A
4:00 AM81 °FPassing clouds.8 mph84%29.95 "HgN/A
3:30 AM81 °FPassing clouds.7 mph79%29.95 "HgN/A
3:00 AM81 °FPassing clouds.6 mph84%29.95 "HgN/A
2:30 AM81 °FPassing clouds.8 mph84%29.95 "HgN/A
2:00 AM81 °FPassing clouds.5 mph84%29.95 "HgN/A
1:30 AM81 °FPassing clouds.9 mph84%29.95 "HgN/A
1:00 AM82 °FPassing clouds.8 mph79%29.95 "HgN/A
12:30 AM82 °FPassing clouds.7 mph79%29.95 "HgN/A
12:00 AM82 °FPassing clouds.8 mph84%29.98 "HgN/A
11:30 PM
Tue, Oct 25
82 °FPassing clouds.6 mph84%29.98 "HgN/A
11:00 PM82 °FPassing clouds.8 mph79%29.98 "HgN/A
10:30 PM82 °FPassing clouds.6 mph79%29.95 "HgN/A
10:00 PM82 °FPassing clouds.8 mph79%29.95 "HgN/A
9:30 PM82 °FPassing clouds.5 mph79%29.95 "HgN/A
9:00 PM82 °FPassing clouds.8 mph79%29.95 "HgN/A
8:30 PM82 °FPassing clouds.10 mph79%29.92 "HgN/A
8:00 PM82 °FPassing clouds.10 mph84%29.92 "HgN/A
7:30 PM84 °FPassing clouds.10 mph74%29.92 "HgN/A
7:00 PM82 °FPassing clouds.12 mph79%29.89 "HgN/A
6:30 PM84 °FPassing clouds.10 mph74%29.89 "HgN/A
6:00 PM82 °FPassing clouds.12 mph79%29.89 "HgN/A
5:30 PM84 °FPassing clouds.15 mph74%29.86 "HgN/A
5:00 PM84 °FPassing clouds.17 mph74%29.86 "HgN/A
4:30 PM86 °FPassing clouds.16 mph70%29.86 "HgN/A
4:00 PM88 °FPassing clouds.17 mph66%29.86 "HgN/A
3:30 PM88 °FScattered clouds.18 mph66%29.86 "HgN/A
3:00 PM88 °FScattered clouds.17 mph66%29.86 "HgN/A
2:30 PM88 °FScattered clouds.12 mph66%29.86 "HgN/A
2:00 PM88 °FScattered clouds.7 mph66%29.89 "HgN/A
1:30 PM86 °FScattered clouds.5 mph66%29.89 "HgN/A
1:00 PM90 °FScattered clouds.8 mph63%29.92 "HgN/A
12:30 PM86 °FScattered clouds.6 mph70%29.92 "HgN/A
12:00 PM86 °FScattered clouds.10 mph70%29.92 "HgN/A
11:30 AM88 °FScattered clouds.6 mph66%29.95 "HgN/A
11:00 AM88 °FPassing clouds.10 mph66%29.95 "HgN/A
10:30 AM88 °FPassing clouds.7 mph66%29.95 "HgN/A
10:00 AM88 °FPassing clouds.9 mph66%29.95 "HgN/A
Weather by CustomWeather, © 2016

See weather overviewHow to use our weather pages